Location: A O Calhoun Middle School
(33.2198°N, 97.1397°W)
Time: 14:36:40
(UTC+00:00)

Cosmos 1538 Rocket - Pass Details

Date: 09 July 2022
Orbit: 752 x 791 km, 74.0° (Epoch: 13 August)

Event Time Altitude Azimuth Distance (km) Brightness Sun altitude
Exits shadow 09:50:47 19° 184° (S) 1,743 5.4 -17.3°
Maximum altitude 09:54:29 69° 104° (ESE) 815 4.2 -16.7°
Drops below altitude 10° 09:59:38 10° 22° (NNE) 2,288 7.5 -15.9°
Sets 10:02:01 0° 20° (NNE) 3,213 8.3 -15.5°
